Location: Godiavel Galaoual
(15.2485°N, 12.6604°W)
Time: 11:19:23
(UTC+00:00)

Hubble Space Telescope - Pass Details

Date: 16 May 2021
Orbit: 535 x 539 km, 28.5° (Epoch: 19 June)

Event Time Altitude Azimuth Distance (km) Brightness Sun altitude
Exits shadow 04:12:41 14° 120° (ESE) 1,512 3.3 -28.8°
Drops below altitude 10° 04:13:49 10° 105° (ESE) 1,773 3.9 -28.6°
Sets 04:16:38 0° 86° (E) 2,663 5.2 -28.0°
